| time (UTC) | temp F | wind direction | speed knots | gust knots | rain 1hr in | rain 24hr in | rain mn in | humidity % | barometer mb |
| 20260904180024 | 65 | 315 | 0.0 | 0.0 | 0.00 | 0.73 | 0.00 | 76 | 1053.8 |
| 20260904175910 | 65 | 315 | 0.0 | 0.0 | 0.00 | 0.73 | 0.00 | 76 | 1053.8 |
| 20260904175807 | 65 | 315 | 13.9 | 0.0 | 0.00 | 0.73 | 0.00 | 76 | 1053.8 |
| 20260904175659 | 65 | 292 | 5.2 | 0.0 | 0.00 | 0.73 | 0.00 | 76 | 1053.7 |
| 20260904175546 | 65 | 270 | 3.5 | 0.0 | 0.00 | 0.73 | 0.00 | 75 | 1053.8 |
| 20260904175433 | 65 | 270 | 7.0 | 0.0 | 0.00 | 0.73 | 0.00 | 74 | 1053.7 |
| 20260904175328 | 65 | 292 | 4.3 | 0.0 | 0.00 | 0.73 | 0.00 | 74 | 1053.7 |
| 20260904175217 | 65 | 315 | 6.1 | 0.0 | 0.00 | 0.73 | 0.00 | 74 | 1053.7 |
| 20260904175110 | 65 | 315 | 13.9 | 0.0 | 0.00 | 0.73 | 0.00 | 75 | 1053.7 |
| 20260904175005 | 65 | 270 | 9.6 | 0.0 | 0.00 | 0.73 | 0.00 | 75 | 1053.8 |
| 20260904174853 | 65 | 247 | 7.0 | 0.0 | 0.00 | 0.73 | 0.00 | 74 | 1053.7 |
| 20260904174747 | 65 | 270 | 5.2 | 0.0 | 0.00 | 0.73 | 0.00 | 74 | 1053.5 |
| 20260904174633 | 65 | 292 | 6.1 | 0.0 | 0.00 | 0.73 | 0.00 | 73 | 1053.5 |
| 20260904174521 | 65 | 270 | 18.2 | 0.0 | 0.00 | 0.73 | 0.00 | 74 | 1053.5 |
| 20260904174416 | 65 | 315 | 0.0 | 0.0 | 0.00 | 0.73 | 0.00 | 74 | 1053.6 |
| 20260904174310 | 65 | 315 | 10.4 | 0.0 | 0.00 | 0.73 | 0.00 | 75 | 1053.5 |
| 20260904174206 | 65 | 337 | 5.2 | 0.0 | 0.00 | 0.73 | 0.00 | 75 | 1053.6 |
| 20260904174100 | 65 | 22 | 5.2 | 0.0 | 0.00 | 0.73 | 0.00 | 74 | 1053.5 |
| 20260904173933 | 65 | 292 | 11.3 | 0.0 | 0.00 | 0.73 | 0.00 | 75 | 1053.5 |
| 20260904173828 | 65 | 337 | 13.0 | 0.0 | 0.00 | 0.73 | 0.00 | 75 | 1053.5 |
| 20260904173721 | 65 | 315 | 6.1 | 0.0 | 0.00 | 0.73 | 0.00 | 75 | 1053.6 |
| 20260904173608 | 65 | 315 | 4.3 | 0.0 | 0.00 | 0.73 | 0.00 | 75 | 1053.6 |
| 20260904173455 | 65 | 0 | 11.3 | 0.0 | 0.00 | 0.73 | 0.00 | 75 | 1053.5 |
| 20260904173350 | 65 | 292 | 5.2 | 0.0 | 0.00 | 0.73 | 0.00 | 74 | 1053.5 |
| 20260904173244 | 65 | 292 | 12.2 | 0.0 | 0.00 | 0.73 | 0.00 | 74 | 1053.4 |
| 20260904173134 | 65 | 315 | 5.2 | 0.0 | 0.00 | 0.73 | 0.00 | 74 | 1053.5 |
| 20260904173026 | 65 | 292 | 8.7 | 0.0 | 0.00 | 0.73 | 0.00 | 74 | 1053.4 |
| 20260904172916 | 65 | 270 | 9.6 | 0.0 | 0.00 | 0.73 | 0.00 | 73 | 1053.4 |
| 20260904172808 | 65 | 292 | 11.3 | 0.0 | 0.00 | 0.73 | 0.00 | 74 | 1053.4 |
| 20260904172656 | 65 | 337 | 6.1 | 0.0 | 0.00 | 0.73 | 0.00 | 73 | 1053.4 |
| 20260904172550 | 65 | 292 | 15.6 | 0.0 | 0.00 | 0.73 | 0.00 | 74 | 1053.4 |
| 20260904172438 | 65 | 337 | 0.0 | 0.0 | 0.00 | 0.73 | 0.00 | 73 | 1053.3 |
| 20260904172330 | 65 | 315 | 9.6 | 0.0 | 0.00 | 0.73 | 0.00 | 72 | 1053.4 |
| 20260904172209 | 65 | 315 | 3.5 | 0.0 | 0.00 | 0.73 | 0.00 | 72 | 1053.3 |
| 20260904172056 | 65 | 292 | 2.6 | 0.0 | 0.00 | 0.73 | 0.00 | 72 | 1053.3 |
| 20260904171951 | 65 | 315 | 12.2 | 0.0 | 0.00 | 0.73 | 0.00 | 72 | 1053.3 |
| 20260904171846 | 65 | 270 | 0.0 | 0.0 | 0.00 | 0.73 | 0.00 | 72 | 1053.3 |
| 20260904171725 | 65 | 270 | 1.7 | 0.0 | 0.00 | 0.73 | 0.00 | 71 | 1053.3 |
| 20260904171620 | 65 | 270 | 10.4 | 0.0 | 0.00 | 0.73 | 0.00 | 71 | 1053.4 |
| 20260904171514 | 65 | 292 | 5.2 | 0.0 | 0.00 | 0.73 | 0.00 | 72 | 1053.4 |
| 20260904171402 | 65 | 270 | 6.1 | 0.0 | 0.00 | 0.73 | 0.00 | 72 | 1053.3 |
| 20260904171256 | 65 | 337 | 3.5 | 0.0 | 0.00 | 0.73 | 0.00 | 72 | 1053.3 |
| 20260904171143 | 65 | 337 | 9.6 | 0.0 | 0.00 | 0.73 | 0.00 | 72 | 1053.2 |
| 20260904171038 | 65 | 315 | 13.0 | 0.0 | 0.00 | 0.73 | 0.00 | 72 | 1053.3 |
| 20260904170923 | 65 | 22 | 0.0 | 0.0 | 0.00 | 0.73 | 0.00 | 71 | 1053.2 |
| 20260904170803 | 65 | 315 | 11.3 | 0.0 | 0.00 | 0.73 | 0.00 | 71 | 1053.1 |
| 20260904170649 | 65 | 292 | 5.2 | 0.0 | 0.00 | 0.73 | 0.00 | 73 | 1053.2 |
| 20260904170527 | 65 | 292 | 7.8 | 0.0 | 0.00 | 0.73 | 0.00 | 74 | 1053.3 |
| 20260904170417 | 65 | 292 | 5.2 | 0.0 | 0.00 | 0.73 | 0.00 | 74 | 1053.1 |
| 20260904170309 | 65 | 315 | 8.7 | 0.0 | 0.00 | 0.73 | 0.00 | 73 | 1053.1 |
| 20260904170156 | 65 | 292 | 0.0 | 0.0 | 0.00 | 0.73 | 0.00 | 73 | 1053.2 |
| 20260904170050 | 65 | 337 | 6.1 | 0.0 | 0.00 | 0.73 | 0.00 | 72 | 1053.1 |
| 20260904165945 | 65 | 337 | 5.2 | 0.0 | 0.00 | 0.73 | 0.00 | 71 | 1053.1 |
| 20260904165838 | 65 | 315 | 13.0 | 0.0 | 0.00 | 0.73 | 0.00 | 71 | 1053.1 |
| 20260904165718 | 65 | 292 | 4.3 | 0.0 | 0.00 | 0.73 | 0.00 | 71 | 1053.1 |
| 20260904165604 | 65 | 315 | 4.3 | 0.0 | 0.00 | 0.73 | 0.00 | 71 | 1053.0 |
| 20260904165451 | 66 | 270 | 5.2 | 0.0 | 0.00 | 0.73 | 0.00 | 72 | 1053.1 |
| 20260904165346 | 66 | 315 | 5.2 | 0.0 | 0.00 | 0.73 | 0.00 | 73 | 1053.0 |
| 20260904165235 | 66 | 0 | 5.2 | 0.0 | 0.00 | 0.73 | 0.00 | 73 | 1053.0 |
| 20260904165127 | 66 | 315 | 7.8 | 0.0 | 0.00 | 0.73 | 0.00 | 72 | 1053.0 |
| 20260904165007 | 66 | 315 | 6.1 | 0.0 | 0.00 | 0.73 | 0.00 | 72 | 1053.0 |
| 20260904164853 | 66 | 315 | 7.8 | 0.0 | 0.00 | 0.73 | 0.00 | 72 | 1053.0 |
| 20260904164733 | 66 | 292 | 18.2 | 0.0 | 0.00 | 0.73 | 0.00 | 72 | 1052.9 |
| 20260904164627 | 66 | 270 | 7.8 | 0.0 | 0.00 | 0.73 | 0.00 | 72 | 1052.9 |
| 20260904164516 | 66 | 337 | 16.5 | 0.0 | 0.00 | 0.73 | 0.00 | 72 | 1052.9 |
| 20260904164411 | 66 | 270 | 7.8 | 0.0 | 0.00 | 0.73 | 0.00 | 72 | 1052.9 |
| 20260904164304 | 66 | 0 | 0.0 | 0.0 | 0.00 | 0.73 | 0.00 | 72 | 1053.0 |
| 20260904164151 | 66 | 270 | 8.7 | 0.0 | 0.00 | 0.73 | 0.00 | 72 | 1053.0 |
| 20260904164047 | 66 | 292 | 5.2 | 0.0 | 0.00 | 0.73 | 0.00 | 72 | 1052.9 |
| 20260904163940 | 66 | 0 | 12.2 | 0.0 | 0.00 | 0.73 | 0.00 | 71 | 1052.9 |
| 20260904163828 | 66 | 292 | 4.3 | 0.0 | 0.00 | 0.73 | 0.00 | 71 | 1052.9 |
| 20260904163714 | 66 | 292 | 10.4 | 0.0 | 0.00 | 0.73 | 0.00 | 71 | 1052.9 |
| 20260904163602 | 66 | 315 | 18.2 | 0.0 | 0.00 | 0.73 | 0.00 | 72 | 1052.9 |
| 20260904163449 | 66 | 270 | 12.2 | 0.0 | 0.00 | 0.73 | 0.00 | 72 | 1053.0 |
| 20260904163327 | 66 | 315 | 13.0 | 0.0 | 0.00 | 0.73 | 0.00 | 71 | 1053.0 |
| 20260904163214 | 66 | 315 | 7.0 | 0.0 | 0.00 | 0.73 | 0.00 | 72 | 1052.9 |
| 20260904163101 | 66 | 315 | 9.6 | 0.0 | 0.00 | 0.73 | 0.00 | 71 | 1052.9 |
| 20260904162956 | 66 | 270 | 7.0 | 0.0 | 0.00 | 0.73 | 0.00 | 71 | 1052.8 |
| 20260904162837 | 66 | 315 | 3.5 | 0.0 | 0.00 | 0.73 | 0.00 | 71 | 1052.8 |
| 20260904162709 | 66 | 0 | 7.8 | 0.0 | 0.00 | 0.73 | 0.00 | 71 | 1052.8 |
| 20260904162556 | 66 | 315 | 1.7 | 0.0 | 0.00 | 0.73 | 0.00 | 71 | 1052.8 |
| 20260904162440 | 66 | 315 | 5.2 | 0.0 | 0.00 | 0.73 | 0.00 | 71 | 1052.7 |
| 20260904162301 | 66 | 180 | 5.2 | 0.0 | 0.00 | 0.73 | 0.00 | 71 | 1052.8 |
| 20260904162142 | 66 | 247 | 3.5 | 0.0 | 0.00 | 0.73 | 0.00 | 72 | 1052.8 |
| 20260904162027 | 66 | 270 | 6.1 | 0.0 | 0.00 | 0.73 | 0.00 | 72 | 1052.8 |
| 20260904161906 | 66 | 292 | 4.3 | 0.0 | 0.00 | 0.73 | 0.00 | 71 | 1052.8 |
| 20260904161801 | 66 | 292 | 7.0 | 0.0 | 0.00 | 0.73 | 0.00 | 71 | 1052.8 |
| 20260904161656 | 66 | 247 | 11.3 | 0.0 | 0.00 | 0.73 | 0.00 | 72 | 1052.8 |
| 20260904161535 | 66 | 247 | 15.6 | 0.0 | 0.00 | 0.73 | 0.00 | 72 | 1052.8 |
| 20260904161430 | 66 | 292 | 9.6 | 0.0 | 0.00 | 0.73 | 0.00 | 72 | 1052.9 |
| 20260904161319 | 66 | 337 | 8.7 | 0.0 | 0.00 | 0.73 | 0.00 | 71 | 1052.9 |
| 20260904161212 | 66 | 315 | 17.4 | 0.0 | 0.00 | 0.73 | 0.00 | 71 | 1052.7 |
| 20260904161106 | 66 | 270 | 13.9 | 0.0 | 0.00 | 0.73 | 0.00 | 72 | 1052.8 |
| 20260904160953 | 66 | 292 | 7.8 | 0.0 | 0.00 | 0.73 | 0.00 | 71 | 1052.9 |
| 20260904160849 | 66 | 315 | 2.6 | 0.0 | 0.00 | 0.73 | 0.00 | 71 | 1052.7 |
| 20260904160744 | 66 | 337 | 7.0 | 0.0 | 0.00 | 0.73 | 0.00 | 72 | 1052.7 |
| 20260904160631 | 66 | 315 | 5.2 | 0.0 | 0.00 | 0.73 | 0.00 | 72 | 1052.7 |
| 20260904160517 | 66 | 270 | 8.7 | 0.0 | 0.00 | 0.73 | 0.00 | 72 | 1052.8 |
| 20260904160412 | 66 | 292 | 6.1 | 0.0 | 0.00 | 0.73 | 0.00 | 72 | 1052.8 |
| 20260904160252 | 66 | 292 | 3.5 | 0.0 | 0.00 | 0.73 | 0.00 | 71 | 1052.7 |
| 20260904160146 | 66 | 270 | 7.0 | 0.0 | 0.00 | 0.73 | 0.00 | 71 | 1052.7 |
| 20260904160033 | 66 | 292 | 12.2 | 0.0 | 0.00 | 0.73 | 0.00 | 71 | 1052.8 |
| 20260904155922 | 66 | 292 | 6.1 | 0.0 | 0.00 | 0.73 | 0.00 | 72 | 1052.8 |
| 20260904155813 | 66 | 22 | 3.5 | 0.0 | 0.00 | 0.73 | 0.00 | 72 | 1052.7 |
| 20260904155703 | 66 | 292 | 12.2 | 0.0 | 0.00 | 0.73 | 0.00 | 72 | 1052.8 |
| 20260904155554 | 66 | 292 | 19.1 | 0.0 | 0.00 | 0.73 | 0.00 | 73 | 1052.7 |
| 20260904155438 | 66 | 315 | 8.7 | 0.0 | 0.00 | 0.73 | 0.00 | 73 | 1052.8 |
| 20260904155311 | 66 | 292 | 7.8 | 0.0 | 0.00 | 0.73 | 0.00 | 72 | 1052.8 |
| 20260904155203 | 66 | 292 | 7.8 | 0.0 | 0.00 | 0.73 | 0.00 | 72 | 1052.6 |
| 20260904155048 | 66 | 292 | 6.1 | 0.0 | 0.00 | 0.73 | 0.00 | 72 | 1052.7 |
| 20260904154918 | 66 | 270 | 8.7 | 0.0 | 0.00 | 0.73 | 0.00 | 72 | 1052.7 |
| 20260904154803 | 66 | 315 | 6.1 | 0.0 | 0.00 | 0.73 | 0.00 | 72 | 1052.7 |
| 20260904154646 | 66 | 337 | 13.9 | 0.0 | 0.00 | 0.73 | 0.00 | 72 | 1052.6 |
| 20260904154520 | 66 | 315 | 7.8 | 0.0 | 0.00 | 0.73 | 0.00 | 71 | 1052.6 |
| 20260904154415 | 66 | 270 | 10.4 | 0.0 | 0.00 | 0.73 | 0.00 | 72 | 1052.6 |
| 20260904154300 | 66 | 247 | 18.2 | 0.0 | 0.00 | 0.73 | 0.00 | 72 | 1052.6 |
| 20260904154138 | 67 | 270 | 10.4 | 0.0 | 0.00 | 0.73 | 0.00 | 73 | 1052.6 |
| 20260904154016 | 67 | 337 | 5.2 | 0.0 | 0.00 | 0.73 | 0.00 | 74 | 1052.5 |
| 20260904153847 | 67 | 337 | 7.8 | 0.0 | 0.00 | 0.73 | 0.00 | 75 | 1052.5 |
| 20260904153727 | 67 | 292 | 2.6 | 0.0 | 0.00 | 0.73 | 0.00 | 74 | 1052.6 |
| 20260904153623 | 67 | 315 | 14.8 | 0.0 | 0.00 | 0.73 | 0.00 | 75 | 1052.6 |
| 20260904153518 | 67 | 315 | 10.4 | 0.0 | 0.00 | 0.73 | 0.00 | 75 | 1052.5 |
| 20260904153412 | 67 | 270 | 16.5 | 0.0 | 0.00 | 0.73 | 0.00 | 75 | 1052.4 |
| 20260904153258 | 67 | 270 | 10.4 | 0.0 | 0.00 | 0.73 | 0.00 | 75 | 1052.3 |
| 20260904153144 | 67 | 315 | 6.1 | 0.0 | 0.00 | 0.73 | 0.00 | 75 | 1052.4 |
| 20260904153033 | 67 | 292 | 4.3 | 0.0 | 0.00 | 0.73 | 0.00 | 75 | 1052.3 |
| 20260904152921 | 67 | 0 | 4.3 | 0.0 | 0.00 | 0.73 | 0.00 | 75 | 1052.4 |
| 20260904152813 | 67 | 270 | 6.1 | 0.0 | 0.00 | 0.73 | 0.00 | 75 | 1052.3 |
| 20260904152653 | 67 | 270 | 5.2 | 0.0 | 0.00 | 0.73 | 0.00 | 75 | 1052.2 |
| 20260904152547 | 67 | 292 | 9.6 | 0.0 | 0.00 | 0.73 | 0.00 | 75 | 1052.2 |
| 20260904152442 | 67 | 337 | 6.1 | 0.0 | 0.00 | 0.73 | 0.00 | 75 | 1052.1 |
| 20260904152328 | 67 | 0 | 5.2 | 0.0 | 0.00 | 0.73 | 0.00 | 78 | 1052.2 |
| 20260904152200 | 67 | 0 | 9.6 | 0.0 | 0.00 | 0.73 | 0.00 | 78 | 1051.9 |
| 20260904152055 | 67 | 315 | 5.2 | 0.0 | 0.00 | 0.73 | 0.00 | 77 | 1051.9 |
| 20260904151933 | 67 | 292 | 4.3 | 0.0 | 0.00 | 0.73 | 0.00 | 76 | 1052.0 |
| 20260904151812 | 67 | 292 | 17.4 | 0.0 | 0.00 | 0.73 | 0.00 | 76 | 1052.0 |
| 20260904151646 | 67 | 292 | 14.8 | 0.0 | 0.00 | 0.73 | 0.00 | 76 | 1052.1 |
| 20260904151540 | 67 | 315 | 4.3 | 0.0 | 0.00 | 0.73 | 0.00 | 78 | 1052.1 |
| 20260904151433 | 67 | 315 | 3.5 | 0.0 | 0.00 | 0.73 | 0.00 | 78 | 1052.1 |
| 20260904151314 | 67 | 315 | 1.7 | 0.0 | 0.00 | 0.73 | 0.00 | 77 | 1052.0 |
| 20260904151200 | 67 | 292 | 11.3 | 0.0 | 0.00 | 0.73 | 0.00 | 77 | 1051.9 |
| 20260904151053 | 67 | 292 | 13.0 | 0.0 | 0.00 | 0.73 | 0.00 | 77 | 1052.0 |
| 20260904150933 | 67 | 337 | 4.3 | 0.0 | 0.00 | 0.73 | 0.00 | 77 | 1052.0 |
| 20260904150827 | 67 | 337 | 13.9 | 0.0 | 0.00 | 0.73 | 0.00 | 77 | 1052.1 |
| 20260904150715 | 67 | 270 | 7.0 | 0.0 | 0.00 | 0.73 | 0.00 | 78 | 1051.9 |
| 20260904150600 | 67 | 292 | 9.6 | 0.0 | 0.00 | 0.73 | 0.00 | 78 | 1051.8 |
| 20260904150439 | 67 | 292 | 9.6 | 0.0 | 0.00 | 0.73 | 0.00 | 79 | 1051.9 |
| 20260904150319 | 67 | 315 | 9.6 | 0.0 | 0.00 | 0.73 | 0.00 | 80 | 1051.9 |
| 20260904150216 | 67 | 270 | 1.7 | 0.0 | 0.00 | 0.73 | 0.00 | 80 | 1051.8 |
| 20260904150059 | 67 | 315 | 4.3 | 0.0 | 0.00 | 0.73 | 0.00 | 80 | 1051.8 |
| 20260904145938 | 67 | 270 | 99.1 | 0.0 | 0.00 | 0.73 | 0.00 | 79 | 1051.7 |
| 20260904145310 | 67 | 270 | 99.1 | 0.0 | 0.00 | 0.73 | 0.00 | 79 | 1051.8 |
| 20260904144646 | 67 | 270 | 99.1 | 0.0 | 0.00 | 0.73 | 0.00 | 81 | 1051.8 |
| 20260904144015 | 67 | 270 | 99.1 | 0.0 | 0.00 | 0.73 | 0.00 | 82 | 1051.5 |
| 20260904143345 | 67 | 270 | 99.1 | 0.0 | 0.00 | 0.73 | 0.00 | 82 | 1051.5 |
| 20260904142716 | 67 | 270 | 99.1 | 0.0 | 0.00 | 0.73 | 0.00 | 82 | 1051.3 |
| 20260904142044 | 67 | 270 | 99.1 | 0.0 | 0.00 | 0.73 | 0.00 | 83 | 1051.2 |
| 20260904141415 | 67 | 270 | 99.1 | 0.0 | 0.00 | 0.73 | 0.00 | 84 | 1051.1 |
| 20260904140745 | 67 | 270 | 99.1 | 0.0 | 0.00 | 0.73 | 0.00 | 85 | 1050.9 |
| 20260904140126 | 66 | 270 | 99.1 | 0.0 | 0.00 | 0.73 | 0.00 | 86 | 1050.8 |
| 20260904135541 | 66 | 270 | 99.1 | 0.0 | 0.00 | 0.73 | 0.00 | 86 | 1050.8 |
| 20260904134911 | 66 | 270 | 99.1 | 0.0 | 0.02 | 0.73 | 0.00 | 87 | 1050.7 |
| 20260904134241 | 66 | 270 | 99.1 | 0.0 | 0.02 | 0.73 | 0.00 | 87 | 1050.6 |
| 20260904133610 | 66 | 270 | 99.1 | 0.0 | 0.02 | 0.73 | 0.00 | 89 | 1050.5 |
| 20260904132917 | 65 | 270 | 99.1 | 0.0 | 0.02 | 0.73 | 0.00 | 91 | 1050.4 |
| 20260904132246 | 65 | 270 | 99.1 | 0.0 | 0.02 | 0.73 | 0.00 | 92 | 1050.5 |
| 20260904131637 | 64 | 270 | 99.1 | 0.0 | 0.02 | 0.73 | 0.00 | 92 | 1050.4 |
| 20260904130957 | 63 | 270 | 99.1 | 0.0 | 0.02 | 0.73 | 0.00 | 92 | 1050.5 |
| 20260904130349 | 64 | 270 | 99.1 | 0.0 | 0.02 | 0.73 | 0.00 | 92 | 1050.4 |
| 20260904125741 | 64 | 270 | 99.1 | 0.0 | 0.02 | 0.73 | 0.00 | 91 | 1050.3 |
| 20260904125119 | 64 | 270 | 99.1 | 0.0 | 0.00 | 0.71 | 0.00 | 89 | 1050.3 |
| 20260904124505 | 65 | 270 | 99.1 | 0.0 | 0.00 | 0.71 | 0.00 | 87 | 1050.3 |
| 20260904123827 | 65 | 270 | 99.1 | 0.0 | 0.00 | 0.71 | 0.00 | 87 | 1050.2 |
| 20260904123150 | 65 | 270 | 99.1 | 0.0 | 0.00 | 0.71 | 0.00 | 87 | 1050.2 |
| 20260904122519 | 65 | 270 | 99.1 | 0.0 | 0.00 | 0.71 | 0.00 | 88 | 1050.2 |
| 20260904121906 | 66 | 270 | 99.1 | 0.0 | 0.00 | 0.71 | 0.00 | 89 | 1049.9 |
| 20260904121227 | 66 | 270 | 99.1 | 0.0 | 0.00 | 0.71 | 0.00 | 90 | 1050.3 |
| 20260904120606 | 66 | 270 | 99.1 | 0.0 | 0.00 | 0.71 | 0.00 | 91 | 1050.0 |
| 20260904115944 | 66 | 270 | 99.1 | 0.0 | 0.00 | 0.71 | 0.00 | 92 | 1050.0 |
| 20260904115336 | 66 | 270 | 99.1 | 0.0 | 0.00 | 0.71 | 0.00 | 93 | 1050.1 |
| 20260904114721 | 66 | 270 | 99.1 | 0.0 | 0.00 | 0.71 | 0.00 | 93 | 1049.0 |
| 20260904114107 | 65 | 270 | 99.1 | 0.0 | 0.00 | 0.71 | 0.00 | 93 | 1049.0 |
| 20260904113454 | 65 | 270 | 99.1 | 0.0 | 0.00 | 0.71 | 0.00 | 92 | 1049.8 |
| 20260904112840 | 66 | 270 | 99.1 | 0.0 | 0.00 | 0.71 | 0.00 | 92 | 1049.7 |
| 20260904112226 | 66 | 270 | 99.1 | 0.0 | 0.00 | 0.71 | 0.00 | 92 | 1049.8 |
| 20260904111611 | 66 | 270 | 99.1 | 0.0 | 0.00 | 0.71 | 0.00 | 92 | 1050.2 |
| 20260904111005 | 66 | 270 | 99.1 | 0.0 | 0.00 | 0.71 | 0.00 | 92 | 1050.3 |
| 20260904110327 | 66 | 270 | 99.1 | 0.0 | 0.00 | 0.71 | 0.00 | 92 | 1050.4 |
| 20260904105656 | 66 | 270 | 99.1 | 0.0 | 0.00 | 0.71 | 0.00 | 93 | 1050.0 |
| 20260904105035 | 66 | 270 | 99.1 | 0.0 | 0.00 | 0.71 | 0.00 | 93 | 1049.9 |
| 20260904104412 | 66 | 270 | 99.1 | 0.0 | 0.00 | 0.71 | 0.00 | 94 | 1049.6 |
| 20260904103752 | 65 | 270 | 99.1 | 0.0 | 0.00 | 0.71 | 0.00 | 94 | 1049.8 |
| 20260904103146 | 65 | 270 | 99.1 | 0.0 | 0.00 | 0.71 | 0.00 | 94 | 1049.9 |
| 20260904102531 | 65 | 270 | 99.1 | 0.0 | 0.00 | 0.71 | 0.00 | 94 | 1050.1 |
| 20260904101926 | 64 | 270 | 99.1 | 0.0 | 0.00 | 0.71 | 0.00 | 95 | 1049.8 |
| 20260904101303 | 64 | 270 | 99.1 | 0.0 | 0.04 | 0.71 | 0.00 | 95 | 1049.8 |
| 20260904100706 | 64 | 270 | 99.1 | 0.0 | 0.06 | 0.71 | 0.00 | 95 | 1049.7 |
| 20260904100036 | 64 | 270 | 99.1 | 0.0 | 0.06 | 0.71 | 0.00 | 95 | 1049.8 |
| 20260904095422 | 64 | 270 | 99.1 | 0.0 | 0.06 | 0.73 | 0.00 | 95 | 1049.8 |
| 20260904094802 | 64 | 270 | 99.1 | 0.0 | 0.08 | 0.73 | 0.00 | 95 | 1049.8 |
| 20260904094203 | 64 | 270 | 99.1 | 0.0 | 0.08 | 0.73 | 0.00 | 95 | 1049.7 |
| 20260904093558 | 65 | 270 | 99.1 | 0.0 | 0.08 | 0.73 | 0.00 | 95 | 1049.9 |
| 20260904093017 | 66 | 270 | 99.1 | 0.0 | 0.10 | 0.73 | 0.00 | 94 | 1049.8 |
| 20260904092419 | 66 | 270 | 99.1 | 0.0 | 0.10 | 0.73 | 0.00 | 95 | 1049.6 |
| 20260904091757 | 66 | 270 | 99.1 | 0.0 | 0.10 | 0.71 | 0.00 | 95 | 1048.9 |
| 20260904091152 | 66 | 270 | 99.1 | 0.0 | 0.06 | 0.67 | 0.00 | 95 | 1048.7 |
| 20260904090529 | 66 | 270 | 99.1 | 0.0 | 0.08 | 0.67 | 0.00 | 95 | 1048.9 |
| 20260904085907 | 66 | 270 | 99.1 | 0.0 | 0.10 | 0.67 | 0.00 | 95 | 1049.0 |
| 20260904085310 | 66 | 270 | 99.1 | 0.0 | 0.10 | 0.65 | 0.00 | 95 | 1048.8 |
| 20260904084657 | 66 | 270 | 99.1 | 0.0 | 0.10 | 0.65 | 0.00 | 95 | 1048.9 |
| 20260904084042 | 66 | 270 | 99.1 | 0.0 | 0.12 | 0.65 | 0.00 | 94 | 1048.9 |
| 20260904083445 | 66 | 270 | 99.1 | 0.0 | 0.14 | 0.65 | 0.00 | 94 | 1049.1 |
| 20260904082847 | 66 | 270 | 99.1 | 0.0 | 0.14 | 0.63 | 0.00 | 94 | 1049.1 |
| 20260904082234 | 65 | 270 | 99.1 | 0.0 | 0.14 | 0.61 | 0.00 | 94 | 1048.9 |
| 20260904081605 | 64 | 270 | 99.1 | 0.0 | 0.14 | 0.61 | 0.00 | 94 | 1048.9 |
| 20260904080951 | 64 | 270 | 99.1 | 0.0 | 0.16 | 0.61 | 0.00 | 94 | 1049.0 |
| 20260904080321 | 64 | 270 | 99.1 | 0.0 | 0.31 | 0.59 | 0.00 | 94 | 1049.4 |
| 20260904075658 | 64 | 270 | 99.1 | 0.0 | 0.33 | 0.55 | 0.00 | 94 | 1049.5 |
| 20260904075021 | 64 | 270 | 99.1 | 0.0 | 0.37 | 0.55 | 0.00 | 94 | 1049.5 |
| 20260904074350 | 64 | 270 | 99.1 | 0.0 | 0.41 | 0.53 | 0.00 | 93 | 1049.6 |
| 20260904073721 | 64 | 270 | 99.1 | 0.0 | 0.41 | 0.51 | 0.00 | 93 | 1049.9 |
| 20260904073050 | 64 | 270 | 99.1 | 0.0 | 0.43 | 0.49 | 0.00 | 93 | 1050.0 |
| 20260904072421 | 64 | 270 | 99.1 | 0.0 | 0.41 | 0.47 | 0.00 | 93 | 1050.2 |
| 20260904071751 | 64 | 270 | 99.1 | 0.0 | 0.43 | 0.47 | 0.00 | 93 | 1050.4 |
| 20260904071121 | 64 | 270 | 99.1 | 0.0 | 0.39 | 0.43 | 0.00 | 93 | 1050.5 |
| 20260904070451 | 64 | 270 | 99.1 | 0.0 | 0.26 | 0.31 | 0.00 | 93 | 1051.0 |
| 20260904065820 | 64 | 270 | 99.1 | 0.0 | 0.18 | 0.22 | 0.00 | 92 | 1050.7 |
| 20260904065151 | 64 | 270 | 99.1 | 0.0 | 0.16 | 0.18 | 0.00 | 92 | 1050.5 |
| 20260904064520 | 64 | 270 | 99.1 | 0.0 | 0.12 | 0.14 | 0.00 | 92 | 1050.8 |
| 20260904063851 | 64 | 270 | 99.1 | 0.0 | 0.08 | 0.10 | 0.00 | 91 | 1050.7 |
| 20260904063233 | 64 | 270 | 99.1 | 0.0 | 0.04 | 0.06 | 0.00 | 90 | 1050.9 |
| 20260904062604 | 65 | 270 | 99.1 | 0.0 | 0.04 | 0.06 | 0.00 | 90 | 1050.7 |
| 20260904061949 | 65 | 270 | 99.1 | 0.0 | 0.02 | 0.04 | 0.00 | 90 | 1051.4 |
| 20260904061318 | 65 | 270 | 99.1 | 0.0 | 0.02 | 0.04 | 0.00 | 90 | 1051.2 |
| 20260904060648 | 66 | 270 | 99.1 | 0.0 | 0.02 | 0.04 | 0.00 | 92 | 1051.2 |
| 20260904060033 | 66 | 270 | 99.1 | 0.0 | 0.02 | 0.04 | 0.00 | 92 | 1051.4 |
| 20260904055426 | 66 | 270 | 99.1 | 0.0 | 0.02 | 0.04 | 0.00 | 92 | 1051.5 |
| 20260904054830 | 66 | 270 | 99.1 | 0.0 | 0.00 | 0.02 | 0.00 | 92 | 1051.7 |
| 20260904054227 | 66 | 270 | 99.1 | 0.0 | 0.00 | 0.02 | 0.00 | 92 | 1051.9 |
| 20260904053607 | 66 | 270 | 99.1 | 0.0 | 0.00 | 0.02 | 0.00 | 92 | 1051.9 |
| 20260904052948 | 66 | 270 | 99.1 | 0.0 | 0.00 | 0.02 | 0.00 | 91 | 1052.0 |
| 20260904052346 | 66 | 270 | 99.1 | 0.0 | 0.00 | 0.02 | 0.00 | 91 | 1051.9 |
| 20260904051759 | 66 | 270 | 99.1 | 0.0 | 0.00 | 0.02 | 0.00 | 91 | 1051.9 |
| 20260904051158 | 66 | 270 | 99.1 | 0.0 | 0.00 | 0.02 | 0.00 | 91 | 1051.9 |
| 20260904050542 | 66 | 270 | 99.1 | 0.0 | 0.00 | 0.02 | 0.00 | 90 | 1052.1 |
| 20260904045937 | 66 | 270 | 7.8 | 0.0 | 0.00 | 0.02 | 0.00 | 90 | 1052.2 |
| 20260904045824 | 66 | 292 | 5.2 | 0.0 | 0.00 | 0.02 | 0.00 | 90 | 1052.0 |
| 20260904045721 | 66 | 270 | 5.2 | 0.0 | 0.00 | 0.02 | 0.00 | 90 | 1052.1 |
| 20260904045615 | 66 | 247 | 3.5 | 0.0 | 0.00 | 0.02 | 0.00 | 90 | 1052.2 |
| 20260904045509 | 66 | 292 | 5.2 | 0.0 | 0.00 | 0.02 | 0.00 | 90 | 1052.3 |
| 20260904045403 | 66 | 315 | 8.7 | 0.0 | 0.00 | 0.02 | 0.00 | 90 | 1052.3 |
| 20260904045258 | 66 | 270 | 10.4 | 0.0 | 0.00 | 0.02 | 0.00 | 90 | 1052.3 |
| 20260904045145 | 66 | 270 | 5.2 | 0.0 | 0.00 | 0.02 | 0.00 | 89 | 1052.2 |
| 20260904045040 | 66 | 270 | 10.4 | 0.0 | 0.00 | 0.02 | 0.00 | 89 | 1052.1 |
| 20260904044928 | 66 | 270 | 7.8 | 0.0 | 0.00 | 0.02 | 0.00 | 89 | 1052.1 |
| 20260904044821 | 67 | 292 | 11.3 | 0.0 | 0.00 | 0.02 | 0.00 | 89 | 1052.0 |
| 20260904044707 | 67 | 292 | 7.8 | 0.0 | 0.00 | 0.02 | 0.00 | 89 | 1052.1 |
| 20260904044554 | 67 | 270 | 16.5 | 0.0 | 0.00 | 0.02 | 0.00 | 89 | 1052.1 |
| 20260904044447 | 66 | 292 | 7.0 | 0.0 | 0.00 | 0.02 | 0.00 | 89 | 1052.2 |
| 20260904044342 | 66 | 270 | 2.6 | 0.0 | 0.00 | 0.02 | 0.00 | 89 | 1052.2 |
| 20260904044236 | 67 | 270 | 11.3 | 0.0 | 0.00 | 0.02 | 0.00 | 89 | 1052.2 |
| 20260904044122 | 67 | 270 | 5.2 | 0.0 | 0.00 | 0.02 | 0.00 | 89 | 1052.2 |
| 20260904043959 | 67 | 225 | 2.6 | 0.0 | 0.00 | 0.02 | 0.00 | 89 | 1052.3 |
| 20260904043845 | 67 | 270 | 13.0 | 0.0 | 0.00 | 0.02 | 0.00 | 89 | 1052.3 |
| 20260904043722 | 67 | 247 | 7.0 | 0.0 | 0.00 | 0.02 | 0.00 | 89 | 1052.3 |
| 20260904043610 | 67 | 247 | 13.0 | 0.0 | 0.00 | 0.02 | 0.00 | 89 | 1052.3 |
| 20260904043455 | 67 | 270 | 9.6 | 0.0 | 0.00 | 0.02 | 0.00 | 89 | 1052.3 |
| 20260904043336 | 67 | 247 | 6.1 | 0.0 | 0.00 | 0.02 | 0.00 | 89 | 1052.3 |
| 20260904043225 | 67 | 270 | 8.7 | 0.0 | 0.00 | 0.02 | 0.00 | 88 | 1052.4 |
| 20260904043117 | 67 | 270 | 5.2 | 0.0 | 0.00 | 0.02 | 0.00 | 88 | 1052.4 |
| 20260904042958 | 67 | 202 | 1.7 | 0.0 | 0.00 | 0.02 | 0.00 | 88 | 1052.3 |
| 20260904042853 | 67 | 180 | 6.1 | 0.0 | 0.00 | 0.02 | 0.00 | 88 | 1052.5 |
| 20260904042746 | 67 | 247 | 6.1 | 0.0 | 0.00 | 0.02 | 0.00 | 88 | 1052.4 |
| 20260904042626 | 67 | 270 | 6.1 | 0.0 | 0.00 | 0.02 | 0.00 | 88 | 1052.4 |
| 20260904042520 | 67 | 270 | 9.6 | 0.0 | 0.00 | 0.02 | 0.00 | 88 | 1052.4 |
| 20260904042407 | 67 | 247 | 7.8 | 0.0 | 0.00 | 0.02 | 0.00 | 88 | 1052.5 |
| 20260904042305 | 67 | 270 | 11.3 | 0.0 | 0.00 | 0.02 | 0.00 | 88 | 1052.5 |
| 20260904042140 | 67 | 202 | 7.0 | 0.0 | 0.00 | 0.02 | 0.00 | 88 | 1052.5 |
| 20260904042019 | 67 | 247 | 13.9 | 0.0 | 0.00 | 0.02 | 0.00 | 88 | 1052.5 |
| 20260904041905 | 67 | 270 | 7.8 | 0.0 | 0.00 | 0.02 | 0.00 | 88 | 1052.5 |
| 20260904041756 | 67 | 247 | 9.6 | 0.0 | 0.00 | 0.02 | 0.00 | 88 | 1052.6 |
| 20260904041649 | 67 | 270 | 13.0 | 0.0 | 0.00 | 0.02 | 0.00 | 88 | 1052.6 |
| 20260904041535 | 67 | 270 | 10.4 | 0.0 | 0.00 | 0.02 | 0.00 | 88 | 1052.7 |
| 20260904041415 | 67 | 270 | 2.6 | 0.0 | 0.00 | 0.02 | 0.00 | 88 | 1052.6 |
| 20260904041307 | 67 | 202 | 10.4 | 0.0 | 0.00 | 0.02 | 0.00 | 88 | 1052.6 |
| 20260904041156 | 67 | 292 | 7.8 | 0.0 | 0.00 | 0.02 | 0.00 | 88 | 1052.6 |
| 20260904041050 | 67 | 270 | 12.2 | 0.0 | 0.00 | 0.02 | 0.00 | 88 | 1052.6 |
| 20260904040928 | 67 | 247 | 5.2 | 0.0 | 0.00 | 0.02 | 0.00 | 88 | 1052.5 |
| 20260904040810 | 67 | 270 | 7.8 | 0.0 | 0.00 | 0.02 | 0.00 | 88 | 1052.5 |
| 20260904040702 | 67 | 270 | 7.0 | 0.0 | 0.00 | 0.02 | 0.00 | 88 | 1052.6 |
| 20260904040541 | 67 | 247 | 3.5 | 0.0 | 0.00 | 0.02 | 0.00 | 88 | 1052.6 |
| 20260904040421 | 67 | 270 | 7.8 | 0.0 | 0.00 | 0.02 | 0.00 | 88 | 1052.6 |
| 20260904040315 | 67 | 225 | 10.4 | 0.0 | 0.00 | 0.02 | 0.00 | 88 | 1052.7 |
| 20260904040205 | 67 | 270 | 6.1 | 0.0 | 0.00 | 0.02 | 0.00 | 88 | 1052.8 |
| 20260904040057 | 67 | 202 | 1.7 | 0.0 | 0.00 | 0.02 | 0.00 | 88 | 1052.7 |
| 20260904035943 | 67 | 202 | 7.0 | 0.0 | 0.00 | 0.02 | 0.00 | 88 | 1052.7 |
| 20260904035824 | 67 | 247 | 6.1 | 0.0 | 0.00 | 0.02 | 0.00 | 88 | 1052.7 |
| 20260904035718 | 67 | 247 | 1.7 | 0.0 | 0.00 | 0.02 | 0.00 | 88 | 1052.7 |
| 20260904035604 | 67 | 225 | 5.2 | 0.0 | 0.00 | 0.02 | 0.00 | 88 | 1052.7 |
| 20260904035452 | 67 | 247 | 4.3 | 0.0 | 0.00 | 0.02 | 0.00 | 88 | 1052.7 |
| 20260904035345 | 67 | 247 | 11.3 | 0.0 | 0.00 | 0.02 | 0.00 | 88 | 1052.7 |
| 20260904035233 | 67 | 247 | 3.5 | 0.0 | 0.00 | 0.02 | 0.00 | 88 | 1052.7 |
| 20260904035121 | 67 | 225 | 2.6 | 0.0 | 0.00 | 0.02 | 0.00 | 88 | 1052.7 |
| 20260904035007 | 67 | 270 | 7.0 | 0.0 | 0.00 | 0.02 | 0.00 | 88 | 1052.7 |
| 20260904034853 | 67 | 225 | 7.0 | 0.0 | 0.00 | 0.02 | 0.00 | 88 | 1052.7 |
| 20260904034539 | 67 | 157 | 99.1 | 0.0 | 0.00 | 0.02 | 0.00 | 89 | 1052.8 |
| 20260904033909 | 67 | 157 | 99.1 | 0.0 | 0.00 | 0.02 | 0.00 | 90 | 1052.8 |
| 20260904033247 | 67 | 157 | 99.1 | 0.0 | 0.00 | 0.02 | 0.00 | 91 | 1052.9 |
| 20260904032641 | 67 | 157 | 99.1 | 0.0 | 0.00 | 0.02 | 0.00 | 92 | 1053.0 |
| 20260904032009 | 66 | 157 | 99.1 | 0.0 | 0.00 | 0.02 | 0.00 | 92 | 1053.2 |
| 20260904031407 | 66 | 157 | 99.1 | 0.0 | 0.00 | 0.02 | 0.00 | 92 | 1053.2 |
| 20260904030753 | 66 | 157 | 99.1 | 0.0 | 0.00 | 0.02 | 0.00 | 93 | 1053.3 |
| 20260904030142 | 66 | 157 | 99.1 | 0.0 | 0.00 | 0.02 | 0.00 | 93 | 1053.5 |
| 20260904025542 | 66 | 157 | 99.1 | 0.0 | 0.00 | 0.02 | 0.00 | 93 | 1053.4 |
| 20260904024920 | 66 | 157 | 99.1 | 0.0 | 0.00 | 0.02 | 0.00 | 93 | 1053.6 |
| 20260904024314 | 66 | 157 | 99.1 | 0.0 | 0.00 | 0.02 | 0.00 | 93 | 1053.7 |
| 20260904023644 | 66 | 157 | 99.1 | 0.0 | 0.00 | 0.02 | 0.00 | 93 | 1053.6 |
| 20260904023024 | 66 | 157 | 99.1 | 0.0 | 0.00 | 0.02 | 0.00 | 93 | 1053.7 |
| 20260904022401 | 66 | 157 | 99.1 | 0.0 | 0.00 | 0.02 | 0.00 | 93 | 1054.0 |
| 20260904021739 | 66 | 157 | 99.1 | 0.0 | 0.00 | 0.02 | 0.00 | 93 | 1054.3 |
| 20260904021117 | 66 | 157 | 99.1 | 0.0 | 0.00 | 0.02 | 0.00 | 93 | 1054.2 |
| 20260904020504 | 66 | 157 | 99.1 | 0.0 | 0.00 | 0.02 | 0.00 | 93 | 1054.2 |
| 20260904015905 | 66 | 157 | 99.1 | 0.0 | 0.00 | 0.02 | 0.00 | 93 | 1054.3 |
| 20260904015244 | 65 | 157 | 99.1 | 0.0 | 0.00 | 0.02 | 0.00 | 93 | 1054.3 |
| 20260904014622 | 65 | 247 | 0.0 | 0.0 | 0.00 | 0.02 | 0.00 | 93 | 1054.4 |
| 20260904014350 | 65 | 225 | 11.3 | 0.0 | 0.00 | 0.02 | 0.00 | 93 | 1054.5 |
| 20260904014244 | 65 | 202 | 5.2 | 0.0 | 0.00 | 0.02 | 0.00 | 93 | 1054.4 |
| 20260904014138 | 65 | 202 | 4.3 | 0.0 | 0.00 | 0.02 | 0.00 | 93 | 1054.5 |
| 20260904014025 | 65 | 180 | 6.1 | 0.0 | 0.00 | 0.02 | 0.00 | 93 | 1054.5 |
| 20260904013921 | 65 | 202 | 0.0 | 0.0 | 0.00 | 0.02 | 0.00 | 93 | 1054.6 |
| 20260904013815 | 65 | 202 | 6.1 | 0.0 | 0.00 | 0.02 | 0.00 | 93 | 1054.6 |
| 20260904013710 | 65 | 225 | 7.8 | 0.0 | 0.00 | 0.02 | 0.00 | 93 | 1054.6 |
| 20260904013604 | 65 | 157 | 3.5 | 0.0 | 0.00 | 0.02 | 0.00 | 93 | 1054.7 |
| 20260904013435 | 65 | 180 | 4.3 | 0.0 | 0.00 | 0.02 | 0.00 | 93 | 1054.7 |
| 20260904013322 | 65 | 157 | 4.3 | 0.0 | 0.00 | 0.02 | 0.00 | 93 | 1054.8 |
| 20260904013217 | 65 | 225 | 7.0 | 0.0 | 0.00 | 0.02 | 0.00 | 93 | 1054.8 |
| 20260904013055 | 65 | 202 | 4.3 | 0.0 | 0.00 | 0.02 | 0.00 | 93 | 1054.9 |
| 20260904012935 | 65 | 180 | 5.2 | 0.0 | 0.00 | 0.02 | 0.00 | 93 | 1054.9 |
| 20260904012822 | 65 | 270 | 3.5 | 0.0 | 0.00 | 0.02 | 0.00 | 93 | 1054.9 |
| 20260904012716 | 65 | 225 | 6.1 | 0.0 | 0.00 | 0.02 | 0.00 | 93 | 1055.0 |
| 20260904012555 | 65 | 180 | 3.5 | 0.0 | 0.00 | 0.02 | 0.00 | 93 | 1055.2 |
| 20260904012442 | 65 | 180 | 0.0 | 0.0 | 0.00 | 0.02 | 0.00 | 93 | 1055.1 |
| 20260904012330 | 65 | 202 | 2.6 | 0.0 | 0.00 | 0.02 | 0.00 | 93 | 1055.1 |
| 20260904012224 | 65 | 180 | 6.1 | 0.0 | 0.00 | 0.02 | 0.00 | 93 | 1055.1 |
| 20260904012111 | 65 | 180 | 3.5 | 0.0 | 0.00 | 0.02 | 0.00 | 93 | 1055.2 |
| 20260904011949 | 65 | 202 | 6.1 | 0.0 | 0.00 | 0.02 | 0.00 | 93 | 1055.2 |
| 20260904011836 | 65 | 202 | 5.2 | 0.0 | 0.00 | 0.02 | 0.00 | 93 | 1055.1 |
| 20260904011715 | 65 | 202 | 3.5 | 0.0 | 0.00 | 0.02 | 0.00 | 93 | 1055.2 |
| 20260904011603 | 65 | 180 | 5.2 | 0.0 | 0.00 | 0.02 | 0.00 | 93 | 1055.3 |
| 20260904011450 | 65 | 202 | 6.1 | 0.0 | 0.00 | 0.02 | 0.00 | 93 | 1055.2 |
| 20260904011343 | 65 | 225 | 6.1 | 0.0 | 0.00 | 0.02 | 0.00 | 93 | 1055.3 |
| 20260904011225 | 65 | 225 | 5.2 | 0.0 | 0.00 | 0.02 | 0.00 | 93 | 1055.3 |
| 20260904011118 | 65 | 202 | 8.7 | 0.0 | 0.00 | 0.02 | 0.00 | 93 | 1055.3 |
| 20260904011005 | 65 | 180 | 1.7 | 0.0 | 0.00 | 0.02 | 0.00 | 93 | 1055.4 |
| 20260904010900 | 65 | 225 | 3.5 | 0.0 | 0.00 | 0.02 | 0.00 | 93 | 1055.4 |
| 20260904010756 | 65 | 202 | 7.8 | 0.0 | 0.00 | 0.02 | 0.00 | 93 | 1055.5 |
| 20260904010650 | 65 | 202 | 3.5 | 0.0 | 0.00 | 0.02 | 0.00 | 93 | 1055.5 |
| 20260904010545 | 65 | 180 | 0.0 | 0.0 | 0.00 | 0.02 | 0.00 | 93 | 1055.5 |
| 20260904010432 | 65 | 202 | 8.7 | 0.0 | 0.00 | 0.02 | 0.00 | 93 | 1055.5 |
| 20260904010312 | 65 | 202 | 2.6 | 0.0 | 0.00 | 0.02 | 0.00 | 93 | 1055.6 |
| 20260904005946 | 65 | 247 | 6.1 | 0.0 | 0.00 | 0.02 | 0.00 | 93 | 1055.7 |
| 20260904005835 | 65 | 202 | 4.3 | 0.0 | 0.00 | 0.02 | 0.00 | 92 | 1055.5 |
| 20260904005729 | 65 | 180 | 0.0 | 0.0 | 0.00 | 0.02 | 0.00 | 92 | 1055.6 |
| 20260904005616 | 65 | 247 | 1.7 | 0.0 | 0.00 | 0.02 | 0.00 | 93 | 1055.7 |
| 20260904005513 | 65 | 180 | 0.0 | 0.0 | 0.00 | 0.02 | 0.00 | 92 | 1055.7 |
| 20260904005358 | 65 | 247 | 3.5 | 0.0 | 0.00 | 0.02 | 0.00 | 92 | 1055.8 |
| 20260904005245 | 65 | 157 | 0.0 | 0.0 | 0.00 | 0.02 | 0.00 | 92 | 1055.9 |
| 20260904005139 | 65 | 202 | 0.0 | 0.0 | 0.00 | 0.02 | 0.00 | 92 | 1055.9 |
| 20260904005034 | 65 | 225 | 0.0 | 0.0 | 0.00 | 0.02 | 0.00 | 92 | 1055.9 |
| 20260904004928 | 65 | 180 | 2.6 | 0.0 | 0.00 | 0.02 | 0.00 | 92 | 1055.9 |
| 20260904004813 | 65 | 202 | 4.3 | 0.0 | 0.00 | 0.02 | 0.00 | 92 | 1055.9 |
| 20260904004702 | 65 | 157 | 5.2 | 0.0 | 0.00 | 0.02 | 0.00 | 92 | 1056.0 |
| 20260904004553 | 65 | 180 | 6.1 | 0.0 | 0.00 | 0.02 | 0.00 | 92 | 1056.0 |
| 20260904004439 | 65 | 202 | 5.2 | 0.0 | 0.00 | 0.02 | 0.00 | 92 | 1056.0 |
| 20260904004325 | 64 | 202 | 0.0 | 0.0 | 0.00 | 0.02 | 0.00 | 92 | 1056.0 |
| 20260904004219 | 64 | 180 | 0.0 | 0.0 | 0.00 | 0.02 | 0.00 | 92 | 1056.0 |
| 20260904004113 | 64 | 180 | 0.0 | 0.0 | 0.00 | 0.02 | 0.00 | 92 | 1056.0 |
| 20260904004007 | 64 | 180 | 0.0 | 0.0 | 0.00 | 0.02 | 0.00 | 92 | 1056.1 |
| 20260904003901 | 64 | 180 | 7.8 | 0.0 | 0.00 | 0.02 | 0.00 | 92 | 1056.1 |
| 20260904003756 | 64 | 180 | 2.6 | 0.0 | 0.00 | 0.02 | 0.00 | 92 | 1056.1 |
| 20260904003651 | 64 | 180 | 0.0 | 0.0 | 0.00 | 0.02 | 0.00 | 92 | 1056.1 |
| 20260904003545 | 64 | 225 | 3.5 | 0.0 | 0.00 | 0.02 | 0.00 | 91 | 1056.0 |
| 20260904003440 | 64 | 202 | 5.2 | 0.0 | 0.00 | 0.02 | 0.00 | 91 | 1056.2 |
| 20260904003334 | 64 | 202 | 0.0 | 0.0 | 0.00 | 0.02 | 0.00 | 91 | 1056.2 |
| 20260904003221 | 64 | 180 | 0.0 | 0.0 | 0.00 | 0.02 | 0.00 | 91 | 1056.1 |
| 20260904003108 | 64 | 180 | 0.0 | 0.0 | 0.00 | 0.02 | 0.00 | 91 | 1056.2 |
| 20260904002955 | 64 | 202 | 3.5 | 0.0 | 0.00 | 0.02 | 0.00 | 91 | 1056.2 |
| 20260904002842 | 64 | 202 | 5.2 | 0.0 | 0.00 | 0.02 | 0.00 | 91 | 1056.2 |
| 20260904002737 | 64 | 202 | 3.5 | 0.0 | 0.00 | 0.02 | 0.00 | 91 | 1056.2 |
| 20260904002632 | 64 | 202 | 2.6 | 0.0 | 0.00 | 0.02 | 0.00 | 91 | 1056.2 |
| 20260904002525 | 64 | 202 | 3.5 | 0.0 | 0.00 | 0.02 | 0.00 | 91 | 1056.1 |
| 20260904002420 | 64 | 180 | 3.5 | 0.0 | 0.00 | 0.02 | 0.00 | 91 | 1056.2 |
| 20260904002313 | 64 | 180 | 7.8 | 0.0 | 0.00 | 0.02 | 0.00 | 91 | 1056.3 |
| 20260904002152 | 64 | 202 | 8.7 | 0.0 | 0.00 | 0.02 | 0.00 | 91 | 1056.3 |
| 20260904002046 | 64 | 202 | 4.3 | 0.0 | 0.00 | 0.02 | 0.00 | 91 | 1056.4 |
| 20260904001932 | 64 | 225 | 4.3 | 0.0 | 0.00 | 0.02 | 0.00 | 91 | 1056.3 |
| 20260904001817 | 64 | 202 | 3.5 | 0.0 | 0.00 | 0.02 | 0.00 | 91 | 1056.4 |
| 20260904001655 | 64 | 180 | 0.0 | 0.0 | 0.00 | 0.02 | 0.00 | 91 | 1056.4 |
| 20260904001542 | 64 | 247 | 0.0 | 0.0 | 0.00 | 0.02 | 0.00 | 91 | 1056.5 |
| 20260904001429 | 64 | 247 | 0.0 | 0.0 | 0.00 | 0.02 | 0.00 | 91 | 1056.4 |
| 20260904001325 | 64 | 225 | 0.0 | 0.0 | 0.00 | 0.02 | 0.00 | 91 | 1056.5 |
| 20260904001218 | 64 | 157 | 0.0 | 0.0 | 0.00 | 0.02 | 0.00 | 91 | 1056.4 |
| 20260904001113 | 64 | 225 | 0.9 | 0.0 | 0.00 | 0.02 | 0.00 | 91 | 1056.4 |
| 20260904001006 | 64 | 225 | 5.2 | 0.0 | 0.00 | 0.02 | 0.00 | 91 | 1056.4 |
| 20260904000854 | 64 | 202 | 4.3 | 0.0 | 0.00 | 0.02 | 0.00 | 91 | 1056.4 |
| 20260904000749 | 64 | 202 | 0.0 | 0.0 | 0.00 | 0.02 | 0.00 | 91 | 1056.4 |
| 20260904000644 | 64 | 180 | 7.0 | 0.0 | 0.00 | 0.02 | 0.00 | 90 | 1056.4 |
| 20260904000537 | 64 | 202 | 6.1 | 0.0 | 0.00 | 0.02 | 0.00 | 90 | 1056.4 |
| 20260904000425 | 64 | 202 | 3.5 | 0.0 | 0.00 | 0.02 | 0.00 | 90 | 1056.5 |
| 20260904000312 | 64 | 202 | 0.0 | 0.0 | 0.00 | 0.02 | 0.00 | 90 | 1056.6 |
| 20260904000156 | 64 | 202 | 1.7 | 0.0 | 0.00 | 0.02 | 0.00 | 90 | 1056.7 |
| 20260904000044 | 64 | 202 | 0.0 | 0.0 | 0.00 | 0.02 | 0.00 | 90 | 1056.7 |
| 20260903235930 | 64 | 180 | 2.6 | 0.0 | 0.00 | 0.02 | 0.00 | 90 | 1056.7 |
| 20260903235817 | 64 | 225 | 3.5 | 0.0 | 0.00 | 0.02 | 0.00 | 90 | 1056.7 |
| 20260903235712 | 64 | 225 | 3.5 | 0.0 | 0.00 | 0.02 | 0.00 | 90 | 1056.7 |
| 20260903235558 | 64 | 202 | 0.0 | 0.0 | 0.00 | 0.02 | 0.00 | 90 | 1056.7 |
| 20260903235446 | 64 | 225 | 1.7 | 0.0 | 0.00 | 0.02 | 0.00 | 90 | 1056.7 |
| 20260903235332 | 64 | 180 | 3.5 | 0.0 | 0.00 | 0.02 | 0.00 | 89 | 1056.7 |
| 20260903235219 | 64 | 202 | 2.6 | 0.0 | 0.00 | 0.02 | 0.00 | 89 | 1056.7 |
| 20260903235058 | 64 | 225 | 5.2 | 0.0 | 0.00 | 0.02 | 0.00 | 89 | 1056.8 |
| 20260903234929 | 64 | 202 | 4.3 | 0.0 | 0.00 | 0.02 | 0.00 | 89 | 1056.9 |
| 20260903234824 | 64 | 180 | 0.0 | 0.0 | 0.00 | 0.02 | 0.00 | 89 | 1056.9 |
| 20260903234710 | 64 | 180 | 1.7 | 0.0 | 0.00 | 0.02 | 0.00 | 89 | 1056.9 |
| 20260903234542 | 64 | 180 | 4.3 | 0.0 | 0.00 | 0.02 | 0.00 | 89 | 1056.9 |
| 20260903234436 | 64 | 180 | 2.6 | 0.0 | 0.00 | 0.02 | 0.00 | 89 | 1057.0 |
| 20260903234317 | 64 | 202 | 0.0 | 0.0 | 0.00 | 0.02 | 0.00 | 89 | 1057.0 |
| 20260903234210 | 64 | 180 | 4.3 | 0.0 | 0.00 | 0.02 | 0.00 | 89 | 1056.9 |
| 20260903234042 | 64 | 225 | 0.0 | 0.0 | 0.00 | 0.02 | 0.00 | 89 | 1056.9 |
| 20260903233936 | 64 | 180 | 3.5 | 0.0 | 0.00 | 0.02 | 0.00 | 89 | 1057.0 |
| 20260903233833 | 64 | 180 | 0.0 | 0.0 | 0.00 | 0.02 | 0.00 | 89 | 1056.9 |
| 20260903233728 | 64 | 202 | 0.0 | 0.0 | 0.00 | 0.02 | 0.00 | 89 | 1056.9 |
| 20260903233613 | 64 | 270 | 0.0 | 0.0 | 0.00 | 0.02 | 0.00 | 89 | 1057.1 |
| 20260903233452 | 64 | 202 | 0.0 | 0.0 | 0.00 | 0.02 | 0.00 | 89 | 1057.1 |
| 20260903233347 | 64 | 202 | 0.0 | 0.0 | 0.00 | 0.02 | 0.00 | 89 | 1057.2 |
| 20260903233227 | 64 | 180 | 0.0 | 0.0 | 0.00 | 0.02 | 0.00 | 89 | 1057.1 |
| 20260903233119 | 64 | 180 | 3.5 | 0.0 | 0.00 | 0.02 | 0.00 | 89 | 1057.2 |
| 20260903233000 | 64 | 202 | 0.0 | 0.0 | 0.00 | 0.02 | 0.00 | 89 | 1057.2 |
| 20260903232838 | 64 | 202 | 3.5 | 0.0 | 0.00 | 0.02 | 0.00 | 88 | 1057.3 |
| 20260903232715 | 64 | 202 | 0.0 | 0.0 | 0.00 | 0.02 | 0.00 | 88 | 1057.3 |
| 20260903232555 | 64 | 202 | 4.3 | 0.0 | 0.00 | 0.02 | 0.00 | 88 | 1057.2 |
| 20260903232434 | 64 | 202 | 0.0 | 0.0 | 0.00 | 0.02 | 0.00 | 88 | 1057.3 |
| 20260903232329 | 64 | 225 | 3.5 | 0.0 | 0.00 | 0.02 | 0.00 | 88 | 1057.3 |
| 20260903232207 | 64 | 225 | 0.0 | 0.0 | 0.00 | 0.02 | 0.00 | 88 | 1057.3 |
| 20260903232046 | 64 | 180 | 0.0 | 0.0 | 0.00 | 0.02 | 0.00 | 88 | 1057.3 |
| 20260903231925 | 64 | 225 | 0.0 | 0.0 | 0.00 | 0.02 | 0.00 | 88 | 1057.3 |
| 20260903231756 | 64 | 180 | 0.0 | 0.0 | 0.00 | 0.02 | 0.00 | 88 | 1057.3 |
| 20260903231637 | 64 | 247 | 0.0 | 0.0 | 0.00 | 0.02 | 0.00 | 88 | 1057.3 |
| 20260903231530 | 64 | 202 | 0.0 | 0.0 | 0.00 | 0.02 | 0.00 | 88 | 1057.4 |
| 20260903231416 | 64 | 157 | 0.0 | 0.0 | 0.00 | 0.02 | 0.00 | 88 | 1057.4 |
| 20260903231250 | 64 | 225 | 0.0 | 0.0 | 0.00 | 0.02 | 0.00 | 88 | 1057.5 |
| 20260903231143 | 64 | 157 | 1.7 | 0.0 | 0.00 | 0.02 | 0.00 | 88 | 1057.4 |
| 20260903231039 | 64 | 180 | 0.0 | 0.0 | 0.00 | 0.02 | 0.00 | 88 | 1057.5 |
| 20260903230933 | 64 | 247 | 0.0 | 0.0 | 0.00 | 0.02 | 0.00 | 88 | 1057.5 |
| 20260903230827 | 64 | 202 | 0.9 | 0.0 | 0.00 | 0.02 | 0.00 | 88 | 1057.5 |
| 20260903230657 | 64 | 157 | 4.3 | 0.0 | 0.00 | 0.02 | 0.00 | 88 | 1057.6 |
| 20260903230536 | 64 | 270 | 0.0 | 0.0 | 0.00 | 0.02 | 0.00 | 88 | 1057.6 |
| 20260903230407 | 64 | 202 | 2.6 | 0.0 | 0.00 | 0.02 | 0.00 | 88 | 1057.7 |
| 20260903230245 | 64 | 225 | 0.0 | 0.0 | 0.00 | 0.02 | 0.00 | 87 | 1057.7 |
| 20260903230127 | 64 | 247 | 0.0 | 0.0 | 0.00 | 0.02 | 0.00 | 87 | 1057.8 |
| 20260903230020 | 64 | 247 | 0.0 | 0.0 | 0.00 | 0.02 | 0.00 | 87 | 1057.7 |
| 20260903225909 | 64 | 247 | 0.0 | 0.0 | 0.00 | 0.02 | 0.00 | 87 | 1057.8 |
| 20260903225802 | 64 | 247 | 0.0 | 0.0 | 0.00 | 0.02 | 0.00 | 87 | 1057.7 |
| 20260903225657 | 64 | 270 | 0.0 | 0.0 | 0.00 | 0.02 | 0.00 | 87 | 1057.8 |
| 20260903225551 | 64 | 202 | 0.0 | 0.0 | 0.00 | 0.02 | 0.00 | 87 | 1057.8 |
| 20260903225438 | 64 | 225 | 0.0 | 0.0 | 0.00 | 0.02 | 0.00 | 87 | 1057.6 |
| 20260903225318 | 64 | 202 | 0.0 | 0.0 | 0.00 | 0.02 | 0.00 | 87 | 1057.8 |
| 20260903225214 | 64 | 225 | 0.0 | 0.0 | 0.00 | 0.02 | 0.00 | 87 | 1057.6 |
| 20260903225107 | 64 | 202 | 4.3 | 0.0 | 0.00 | 0.02 | 0.00 | 87 | 1057.6 |
| 20260903224937 | 64 | 225 | 4.3 | 0.0 | 0.00 | 0.02 | 0.00 | 86 | 1057.7 |
| 20260903224824 | 64 | 202 | 7.0 | 0.0 | 0.00 | 0.02 | 0.00 | 86 | 1057.8 |
| 20260903224712 | 64 | 202 | 0.0 | 0.0 | 0.00 | 0.02 | 0.00 | 86 | 1057.8 |
| 20260903224607 | 64 | 180 | 5.2 | 0.0 | 0.00 | 0.02 | 0.00 | 86 | 1057.6 |
| 20260903224455 | 64 | 225 | 0.0 | 0.0 | 0.00 | 0.02 | 0.00 | 86 | 1057.7 |
| 20260903224343 | 64 | 202 | 5.2 | 0.0 | 0.00 | 0.02 | 0.00 | 86 | 1057.7 |
| 20260903224235 | 64 | 247 | 0.0 | 0.0 | 0.00 | 0.02 | 0.00 | 86 | 1057.7 |
| 20260903224115 | 64 | 225 | 0.0 | 0.0 | 0.00 | 0.02 | 0.00 | 86 | 1057.7 |
| 20260903224003 | 64 | 247 | 0.0 | 0.0 | 0.00 | 0.02 | 0.00 | 86 | 1057.9 |
| 20260903223857 | 64 | 247 | 2.6 | 0.0 | 0.00 | 0.02 | 0.00 | 86 | 1057.8 |
| 20260903223743 | 64 | 292 | 6.1 | 0.0 | 0.00 | 0.02 | 0.00 | 86 | 1057.8 |
| 20260903223621 | 64 | 247 | 3.5 | 0.0 | 0.00 | 0.02 | 0.00 | 86 | 1057.9 |
| 20260903223502 | 64 | 270 | 3.5 | 0.0 | 0.00 | 0.02 | 0.00 | 86 | 1057.9 |
| 20260903223358 | 64 | 270 | 0.0 | 0.0 | 0.00 | 0.02 | 0.00 | 86 | 1057.9 |
| 20260903223250 | 64 | 270 | 0.0 | 0.0 | 0.00 | 0.02 | 0.00 | 86 | 1058.0 |
| 20260903223130 | 64 | 225 | 3.5 | 0.0 | 0.00 | 0.02 | 0.00 | 86 | 1057.9 |
| 20260903223016 | 64 | 225 | 4.3 | 0.0 | 0.00 | 0.02 | 0.00 | 86 | 1058.0 |
| 20260903222857 | 64 | 270 | 4.3 | 0.0 | 0.00 | 0.02 | 0.00 | 86 | 1057.9 |
| 20260903222750 | 64 | 270 | 4.3 | 0.0 | 0.00 | 0.02 | 0.00 | 86 | 1058.0 |
| 20260903222637 | 64 | 270 | 1.7 | 0.0 | 0.00 | 0.02 | 0.00 | 86 | 1058.0 |
| 20260903222531 | 64 | 202 | 1.7 | 0.0 | 0.00 | 0.02 | 0.00 | 86 | 1058.1 |
| 20260903222402 | 64 | 270 | 4.3 | 0.0 | 0.00 | 0.02 | 0.00 | 86 | 1058.0 |
| 20260903222249 | 64 | 247 | 3.5 | 0.0 | 0.00 | 0.02 | 0.00 | 86 | 1058.0 |
| 20260903222143 | 64 | 180 | 1.7 | 0.0 | 0.00 | 0.02 | 0.00 | 86 | 1058.0 |
| 20260903222013 | 64 | 225 | 0.0 | 0.0 | 0.00 | 0.02 | 0.00 | 86 | 1058.0 |
| 20260903221859 | 65 | 225 | 0.0 | 0.0 | 0.00 | 0.02 | 0.00 | 86 | 1058.1 |
| 20260903221753 | 65 | 225 | 0.0 | 0.0 | 0.00 | 0.02 | 0.00 | 86 | 1058.1 |
| 20260903221647 | 65 | 225 | 3.5 | 0.0 | 0.00 | 0.02 | 0.00 | 86 | 1058.1 |
| 20260903221539 | 65 | 270 | 0.0 | 0.0 | 0.00 | 0.02 | 0.00 | 86 | 1058.0 |
| 20260903221412 | 65 | 247 | 0.0 | 0.0 | 0.00 | 0.02 | 0.00 | 86 | 1058.0 |
| 20260903221307 | 65 | 247 | 4.3 | 0.0 | 0.00 | 0.02 | 0.00 | 86 | 1058.1 |
| 20260903221158 | 65 | 270 | 2.6 | 0.0 | 0.00 | 0.02 | 0.00 | 86 | 1058.1 |
| 20260903221044 | 65 | 270 | 5.2 | 0.0 | 0.00 | 0.02 | 0.00 | 86 | 1058.1 |
| 20260903220929 | 65 | 247 | 3.5 | 0.0 | 0.00 | 0.02 | 0.00 | 86 | 1058.0 |
| 20260903220817 | 65 | 247 | 2.6 | 0.0 | 0.00 | 0.02 | 0.00 | 86 | 1058.1 |
| 20260903220709 | 65 | 292 | 1.7 | 0.0 | 0.00 | 0.02 | 0.00 | 86 | 1058.2 |
| 20260903220547 | 65 | 247 | 5.2 | 0.0 | 0.00 | 0.02 | 0.00 | 86 | 1058.2 |
| 20260903220441 | 65 | 270 | 5.2 | 0.0 | 0.00 | 0.02 | 0.00 | 86 | 1058.2 |
| 20260903220335 | 65 | 247 | 7.0 | 0.0 | 0.00 | 0.02 | 0.00 | 86 | 1058.2 |
| 20260903220229 | 65 | 270 | 5.2 | 0.0 | 0.00 | 0.02 | 0.00 | 86 | 1058.2 |
| 20260903220123 | 65 | 270 | 0.0 | 0.0 | 0.00 | 0.02 | 0.00 | 86 | 1058.2 |
| 20260903220017 | 65 | 202 | 0.0 | 0.0 | 0.00 | 0.02 | 0.00 | 86 | 1058.3 |
| 20260903215911 | 65 | 225 | 1.7 | 0.0 | 0.00 | 0.02 | 0.00 | 86 | 1058.3 |
| 20260903215805 | 65 | 292 | 5.2 | 0.0 | 0.00 | 0.02 | 0.00 | 86 | 1058.3 |
| 20260903215700 | 65 | 270 | 4.3 | 0.0 | 0.00 | 0.02 | 0.00 | 86 | 1058.3 |
| 20260903215553 | 65 | 225 | 3.5 | 0.0 | 0.00 | 0.02 | 0.00 | 86 | 1058.3 |
| 20260903215447 | 65 | 225 | 3.5 | 0.0 | 0.00 | 0.02 | 0.00 | 86 | 1058.2 |
| 20260903215332 | 65 | 270 | 5.2 | 0.0 | 0.00 | 0.02 | 0.00 | 86 | 1058.2 |
| 20260903215213 | 65 | 270 | 0.0 | 0.0 | 0.00 | 0.02 | 0.00 | 86 | 1058.3 |
| 20260903215104 | 65 | 270 | 0.0 | 0.0 | 0.00 | 0.02 | 0.00 | 86 | 1058.2 |
| 20260903214949 | 65 | 270 | 0.0 | 0.0 | 0.00 | 0.02 | 0.00 | 86 | 1058.3 |
| 20260903214818 | 65 | 270 | 3.5 | 0.0 | 0.00 | 0.02 | 0.00 | 86 | 1058.2 |
| 20260903214705 | 65 | 270 | 0.0 | 0.0 | 0.00 | 0.02 | 0.00 | 86 | 1058.2 |
| 20260903214600 | 65 | 247 | 0.0 | 0.0 | 0.00 | 0.02 | 0.00 | 86 | 1058.2 |
| 20260903214453 | 65 | 247 | 7.8 | 0.0 | 0.00 | 0.02 | 0.00 | 86 | 1058.3 |
| 20260903214347 | 65 | 202 | 2.6 | 0.0 | 0.00 | 0.02 | 0.00 | 86 | 1058.3 |
| 20260903214240 | 65 | 225 | 0.0 | 0.0 | 0.00 | 0.02 | 0.00 | 86 | 1058.2 |
| 20260903214120 | 65 | 247 | 2.6 | 0.0 | 0.00 | 0.02 | 0.00 | 86 | 1058.3 |
| 20260903214004 | 65 | 247 | 0.0 | 0.0 | 0.00 | 0.02 | 0.00 | 86 | 1058.4 |
| 20260903213850 | 65 | 270 | 0.0 | 0.0 | 0.00 | 0.02 | 0.00 | 86 | 1058.4 |
| 20260903213728 | 65 | 247 | 0.0 | 0.0 | 0.00 | 0.02 | 0.00 | 86 | 1058.3 |
| 20260903213612 | 65 | 270 | 4.3 | 0.0 | 0.00 | 0.02 | 0.00 | 86 | 1058.3 |
| 20260903213459 | 65 | 270 | 7.8 | 0.0 | 0.00 | 0.02 | 0.00 | 86 | 1058.3 |
| 20260903213353 | 65 | 292 | 6.1 | 0.0 | 0.00 | 0.02 | 0.00 | 86 | 1058.3 |
| 20260903213246 | 65 | 270 | 2.6 | 0.0 | 0.00 | 0.02 | 0.00 | 86 | 1058.4 |
| 20260903213124 | 65 | 270 | 4.3 | 0.0 | 0.00 | 0.02 | 0.00 | 86 | 1058.3 |
| 20260903213010 | 65 | 315 | 4.3 | 0.0 | 0.00 | 0.02 | 0.00 | 86 | 1058.4 |
| 20260903212856 | 65 | 135 | 1.7 | 0.0 | 0.00 | 0.02 | 0.00 | 86 | 1058.4 |
| 20260903212751 | 65 | 270 | 5.2 | 0.0 | 0.00 | 0.02 | 0.00 | 86 | 1058.4 |
| 20260903212645 | 65 | 225 | 4.3 | 0.0 | 0.00 | 0.02 | 0.00 | 86 | 1058.4 |
| 20260903212539 | 65 | 292 | 3.5 | 0.0 | 0.00 | 0.02 | 0.00 | 86 | 1058.4 |
| 20260903212410 | 65 | 202 | 5.2 | 0.0 | 0.00 | 0.02 | 0.00 | 87 | 1058.4 |
| 20260903212249 | 65 | 202 | 2.6 | 0.0 | 0.00 | 0.02 | 0.00 | 87 | 1058.4 |
| 20260903212129 | 65 | 247 | 3.5 | 0.0 | 0.00 | 0.02 | 0.00 | 87 | 1058.4 |
| 20260903212024 | 65 | 247 | 1.7 | 0.0 | 0.00 | 0.02 | 0.00 | 87 | 1058.4 |
| 20260903211920 | 65 | 270 | 5.2 | 0.0 | 0.00 | 0.02 | 0.00 | 87 | 1058.4 |
| 20260903211815 | 65 | 270 | 3.5 | 0.0 | 0.00 | 0.02 | 0.00 | 87 | 1058.4 |
| 20260903211708 | 65 | 247 | 0.0 | 0.0 | 0.00 | 0.02 | 0.00 | 87 | 1058.4 |
| 20260903211555 | 65 | 292 | 5.2 | 0.0 | 0.00 | 0.02 | 0.00 | 87 | 1058.4 |
| 20260903211442 | 65 | 270 | 4.3 | 0.0 | 0.00 | 0.02 | 0.00 | 87 | 1058.4 |
| 20260903211338 | 65 | 270 | 3.5 | 0.0 | 0.00 | 0.02 | 0.00 | 87 | 1058.4 |
| 20260903211234 | 65 | 270 | 4.3 | 0.0 | 0.00 | 0.02 | 0.00 | 87 | 1058.4 |
| 20260903211121 | 65 | 225 | 4.3 | 0.0 | 0.00 | 0.02 | 0.00 | 87 | 1058.3 |
| 20260903211006 | 65 | 270 | 0.0 | 0.0 | 0.00 | 0.02 | 0.00 | 87 | 1058.3 |
| 20260903210853 | 65 | 292 | 0.0 | 0.0 | 0.00 | 0.02 | 0.00 | 87 | 1058.4 |
| 20260903210750 | 65 | 270 | 1.7 | 0.0 | 0.00 | 0.02 | 0.00 | 87 | 1058.4 |
| 20260903210642 | 65 | 270 | 6.1 | 0.0 | 0.00 | 0.02 | 0.00 | 87 | 1058.4 |
| 20260903210529 | 65 | 292 | 5.2 | 0.0 | 0.00 | 0.02 | 0.00 | 87 | 1058.4 |
| 20260903210408 | 65 | 247 | 0.0 | 0.0 | 0.00 | 0.02 | 0.00 | 87 | 1058.5 |
| 20260903210255 | 65 | 225 | 2.6 | 0.0 | 0.00 | 0.02 | 0.00 | 87 | 1058.5 |
| 20260903210150 | 65 | 202 | 3.5 | 0.0 | 0.00 | 0.02 | 0.00 | 87 | 1058.5 |
| 20260903210036 | 65 | 247 | 4.3 | 0.0 | 0.00 | 0.02 | 0.00 | 87 | 1058.6 |
| 20260903205916 | 65 | 247 | 4.3 | 0.0 | 0.00 | 0.02 | 0.00 | 87 | 1058.7 |
| 20260903205803 | 65 | 247 | 4.3 | 0.0 | 0.00 | 0.02 | 0.00 | 87 | 1058.6 |
| 20260903205649 | 65 | 247 | 5.2 | 0.0 | 0.00 | 0.02 | 0.00 | 87 | 1058.7 |
| 20260903205531 | 65 | 270 | 4.3 | 0.0 | 0.00 | 0.02 | 0.00 | 87 | 1058.6 |
| 20260903205426 | 65 | 270 | 5.2 | 0.0 | 0.00 | 0.02 | 0.00 | 87 | 1058.7 |
| 20260903205319 | 65 | 270 | 4.3 | 0.0 | 0.00 | 0.02 | 0.00 | 87 | 1058.6 |
| 20260903205212 | 65 | 292 | 5.2 | 0.0 | 0.00 | 0.02 | 0.00 | 86 | 1058.7 |
| 20260903205053 | 65 | 247 | 6.1 | 0.0 | 0.00 | 0.02 | 0.00 | 86 | 1058.7 |
| 20260903204939 | 65 | 247 | 5.2 | 0.0 | 0.00 | 0.02 | 0.00 | 86 | 1058.7 |
| 20260903204825 | 65 | 270 | 3.5 | 0.0 | 0.00 | 0.02 | 0.00 | 86 | 1058.7 |
| 20260903204711 | 65 | 270 | 3.5 | 0.0 | 0.00 | 0.02 | 0.00 | 86 | 1058.6 |
| 20260903204604 | 65 | 247 | 0.0 | 0.0 | 0.00 | 0.02 | 0.00 | 86 | 1058.6 |
| 20260903204450 | 65 | 225 | 4.3 | 0.0 | 0.00 | 0.02 | 0.00 | 86 | 1058.6 |
| 20260903204337 | 66 | 292 | 4.3 | 0.0 | 0.00 | 0.02 | 0.00 | 86 | 1058.7 |
| 20260903204225 | 66 | 292 | 5.2 | 0.0 | 0.00 | 0.02 | 0.00 | 86 | 1058.7 |
| 20260903204116 | 66 | 270 | 2.6 | 0.0 | 0.00 | 0.02 | 0.00 | 86 | 1058.7 |
| 20260903204002 | 66 | 247 | 3.5 | 0.0 | 0.00 | 0.02 | 0.00 | 86 | 1058.6 |
| 20260903203847 | 66 | 247 | 5.2 | 0.0 | 0.00 | 0.02 | 0.00 | 86 | 1058.7 |
| 20260903203725 | 66 | 247 | 10.4 | 0.0 | 0.00 | 0.02 | 0.00 | 86 | 1058.7 |
| 20260903203611 | 66 | 270 | 7.0 | 0.0 | 0.00 | 0.02 | 0.00 | 86 | 1058.6 |
| 20260903203505 | 66 | 270 | 3.5 | 0.0 | 0.00 | 0.02 | 0.00 | 86 | 1058.7 |
| 20260903203350 | 66 | 247 | 2.6 | 0.0 | 0.00 | 0.02 | 0.00 | 86 | 1058.6 |
| 20260903203238 | 66 | 270 | 4.3 | 0.0 | 0.00 | 0.02 | 0.00 | 86 | 1058.7 |
| 20260903203129 | 66 | 270 | 5.2 | 0.0 | 0.00 | 0.02 | 0.00 | 86 | 1058.7 |
| 20260903203008 | 66 | 247 | 3.5 | 0.0 | 0.00 | 0.02 | 0.00 | 86 | 1058.7 |
| 20260903202902 | 66 | 270 | 2.6 | 0.0 | 0.00 | 0.02 | 0.00 | 86 | 1058.7 |
| 20260903202756 | 66 | 247 | 6.1 | 0.0 | 0.00 | 0.02 | 0.00 | 86 | 1058.7 |
| 20260903202641 | 66 | 270 | 0.0 | 0.0 | 0.00 | 0.02 | 0.00 | 85 | 1058.7 |
| 20260903202512 | 66 | 270 | 3.5 | 0.0 | 0.00 | 0.02 | 0.00 | 85 | 1058.7 |
| 20260903202352 | 66 | 270 | 4.3 | 0.0 | 0.00 | 0.02 | 0.00 | 85 | 1058.8 |
| 20260903202247 | 66 | 292 | 3.5 | 0.0 | 0.00 | 0.02 | 0.00 | 85 | 1058.7 |
| 20260903202141 | 66 | 270 | 7.0 | 0.0 | 0.00 | 0.02 | 0.00 | 85 | 1058.7 |
| 20260903202035 | 66 | 270 | 3.5 | 0.0 | 0.00 | 0.02 | 0.00 | 85 | 1058.7 |
| 20260903201928 | 66 | 270 | 4.3 | 0.0 | 0.00 | 0.02 | 0.00 | 85 | 1058.7 |
| 20260903201818 | 66 | 270 | 4.3 | 0.0 | 0.00 | 0.02 | 0.00 | 85 | 1058.7 |
| 20260903201710 | 66 | 270 | 6.1 | 0.0 | 0.00 | 0.02 | 0.00 | 85 | 1058.7 |
| 20260903201557 | 66 | 270 | 5.2 | 0.0 | 0.00 | 0.02 | 0.00 | 86 | 1058.7 |
| 20260903201451 | 66 | 225 | 9.6 | 0.0 | 0.00 | 0.02 | 0.00 | 86 | 1058.7 |
| 20260903201330 | 66 | 247 | 3.5 | 0.0 | 0.00 | 0.02 | 0.00 | 86 | 1058.7 |
| 20260903201214 | 66 | 270 | 5.2 | 0.0 | 0.00 | 0.02 | 0.00 | 86 | 1058.8 |
| 20260903201100 | 66 | 270 | 6.1 | 0.0 | 0.00 | 0.02 | 0.00 | 86 | 1058.7 |
| 20260903200956 | 66 | 247 | 7.8 | 0.0 | 0.00 | 0.02 | 0.00 | 86 | 1058.8 |
| 20260903200851 | 66 | 247 | 4.3 | 0.0 | 0.00 | 0.02 | 0.00 | 86 | 1058.8 |
| 20260903200745 | 66 | 270 | 5.2 | 0.0 | 0.00 | 0.02 | 0.00 | 86 | 1058.8 |
| 20260903200639 | 66 | 270 | 5.2 | 0.0 | 0.00 | 0.02 | 0.00 | 86 | 1058.8 |
| 20260903200520 | 66 | 292 | 5.2 | 0.0 | 0.00 | 0.02 | 0.00 | 86 | 1058.8 |
| 20260903200414 | 66 | 292 | 5.2 | 0.0 | 0.00 | 0.02 | 0.00 | 86 | 1058.8 |
| 20260903200307 | 66 | 270 | 7.0 | 0.0 | 0.00 | 0.02 | 0.00 | 86 | 1058.8 |
| 20260903200157 | 66 | 270 | 1.7 | 0.0 | 0.00 | 0.02 | 0.00 | 86 | 1058.8 |
| 20260903200048 | 66 | 247 | 5.2 | 0.0 | 0.00 | 0.02 | 0.00 | 86 | 1058.8 |
| 20260903195934 | 66 | 292 | 0.0 | 0.0 | 0.00 | 0.02 | 0.00 | 86 | 1058.8 |
| 20260903195827 | 66 | 225 | 7.8 | 0.0 | 0.00 | 0.02 | 0.00 | 86 | 1058.8 |
| 20260903195709 | 66 | 270 | 3.5 | 0.0 | 0.00 | 0.02 | 0.00 | 86 | 1058.7 |
| 20260903195603 | 66 | 270 | 4.3 | 0.0 | 0.00 | 0.02 | 0.00 | 86 | 1058.7 |
| 20260903195448 | 66 | 315 | 2.6 | 0.0 | 0.00 | 0.02 | 0.00 | 87 | 1058.7 |
| 20260903195336 | 66 | 247 | 7.8 | 0.0 | 0.00 | 0.02 | 0.00 | 87 | 1058.7 |
| 20260903195217 | 66 | 337 | 0.9 | 0.0 | 0.00 | 0.02 | 0.00 | 87 | 1058.6 |
| 20260903195109 | 66 | 270 | 7.0 | 0.0 | 0.00 | 0.02 | 0.00 | 87 | 1058.7 |
| 20260903194947 | 66 | 315 | 4.3 | 0.0 | 0.00 | 0.02 | 0.00 | 87 | 1058.7 |
| 20260903194830 | 66 | 292 | 5.2 | 0.0 | 0.00 | 0.02 | 0.00 | 87 | 1058.7 |
| 20260903194722 | 66 | 292 | 4.3 | 0.0 | 0.00 | 0.02 | 0.00 | 87 | 1058.7 |
| 20260903194609 | 66 | 0 | 6.1 | 0.0 | 0.00 | 0.02 | 0.00 | 86 | 1058.7 |
| 20260903194456 | 66 | 270 | 6.1 | 0.0 | 0.00 | 0.02 | 0.00 | 86 | 1058.7 |
| 20260903194351 | 66 | 292 | 6.1 | 0.0 | 0.00 | 0.02 | 0.00 | 86 | 1058.8 |
| 20260903194245 | 66 | 270 | 0.0 | 0.0 | 0.00 | 0.02 | 0.00 | 86 | 1058.7 |
| 20260903194135 | 66 | 270 | 5.2 | 0.0 | 0.00 | 0.02 | 0.00 | 86 | 1058.8 |
| 20260903194027 | 66 | 270 | 0.0 | 0.0 | 0.00 | 0.02 | 0.00 | 86 | 1058.8 |
| 20260903193907 | 66 | 315 | 11.3 | 0.0 | 0.00 | 0.02 | 0.00 | 86 | 1058.8 |
| 20260903193803 | 66 | 292 | 3.5 | 0.0 | 0.00 | 0.02 | 0.00 | 86 | 1058.8 |
| 20260903193655 | 66 | 315 | 10.4 | 0.0 | 0.00 | 0.02 | 0.00 | 86 | 1058.8 |
| 20260903193542 | 66 | 292 | 5.2 | 0.0 | 0.00 | 0.02 | 0.00 | 86 | 1058.9 |
| 20260903193436 | 66 | 292 | 5.2 | 0.0 | 0.00 | 0.02 | 0.00 | 86 | 1058.9 |
| 20260903193329 | 66 | 292 | 5.2 | 0.0 | 0.00 | 0.02 | 0.00 | 86 | 1058.8 |
| 20260903193215 | 66 | 247 | 2.6 | 0.0 | 0.00 | 0.02 | 0.00 | 86 | 1058.8 |
| 20260903193102 | 66 | 225 | 3.5 | 0.0 | 0.00 | 0.02 | 0.00 | 86 | 1058.8 |
| 20260903192958 | 66 | 270 | 2.6 | 0.0 | 0.00 | 0.02 | 0.00 | 86 | 1058.9 |
| 20260903192850 | 66 | 292 | 3.5 | 0.0 | 0.00 | 0.02 | 0.00 | 86 | 1058.8 |
| 20260903192737 | 66 | 247 | 4.3 | 0.0 | 0.00 | 0.02 | 0.00 | 86 | 1058.7 |
| 20260903192624 | 66 | 292 | 3.5 | 0.0 | 0.00 | 0.02 | 0.00 | 86 | 1058.6 |
| 20260903192518 | 66 | 247 | 5.2 | 0.0 | 0.00 | 0.02 | 0.00 | 86 | 1058.7 |
| 20260903192413 | 66 | 270 | 5.2 | 0.0 | 0.00 | 0.02 | 0.00 | 86 | 1058.7 |
| 20260903192307 | 66 | 247 | 6.1 | 0.0 | 0.00 | 0.02 | 0.00 | 86 | 1058.7 |
| 20260903192200 | 66 | 270 | 4.3 | 0.0 | 0.00 | 0.02 | 0.00 | 86 | 1058.6 |
| 20260903192049 | 66 | 292 | 8.7 | 0.0 | 0.00 | 0.02 | 0.00 | 86 | 1058.6 |
| 20260903191935 | 66 | 315 | 7.0 | 0.0 | 0.00 | 0.02 | 0.00 | 86 | 1058.8 |
| 20260903191830 | 66 | 292 | 6.1 | 0.0 | 0.00 | 0.02 | 0.00 | 86 | 1058.6 |
| 20260903191724 | 66 | 270 | 1.7 | 0.0 | 0.00 | 0.02 | 0.00 | 86 | 1058.6 |
| 20260903191603 | 66 | 270 | 5.2 | 0.0 | 0.00 | 0.02 | 0.00 | 86 | 1058.7 |
| 20260903191433 | 66 | 247 | 5.2 | 0.0 | 0.00 | 0.02 | 0.00 | 86 | 1058.8 |
| 20260903191319 | 66 | 292 | 4.3 | 0.0 | 0.00 | 0.02 | 0.00 | 86 | 1058.8 |
| 20260903191150 | 66 | 270 | 0.0 | 0.0 | 0.00 | 0.02 | 0.00 | 86 | 1058.8 |
| 20260903191038 | 66 | 292 | 3.5 | 0.0 | 0.00 | 0.02 | 0.00 | 86 | 1058.7 |
| 20260903190908 | 66 | 270 | 2.6 | 0.0 | 0.00 | 0.02 | 0.00 | 86 | 1058.8 |
| 20260903190754 | 66 | 270 | 4.3 | 0.0 | 0.00 | 0.02 | 0.00 | 86 | 1058.7 |
| 20260903190649 | 66 | 270 | 11.3 | 0.0 | 0.00 | 0.02 | 0.00 | 86 | 1058.7 |
| 20260903190545 | 66 | 270 | 5.2 | 0.0 | 0.00 | 0.02 | 0.00 | 86 | 1058.7 |
| 20260903190438 | 66 | 292 | 3.5 | 0.0 | 0.00 | 0.02 | 0.00 | 86 | 1058.7 |
| 20260903190333 | 66 | 270 | 5.2 | 0.0 | 0.00 | 0.02 | 0.00 | 86 | 1058.7 |
| 20260903190226 | 66 | 292 | 6.1 | 0.0 | 0.00 | 0.02 | 0.00 | 86 | 1058.8 |
| 20260903190104 | 66 | 270 | 7.8 | 0.0 | 0.00 | 0.02 | 0.00 | 86 | 1058.7 |
| 20260903185950 | 66 | 247 | 8.7 | 0.0 | 0.00 | 0.02 | 0.00 | 86 | 1058.7 |
| 20260903185836 | 66 | 270 | 8.7 | 0.0 | 0.00 | 0.02 | 0.00 | 86 | 1058.6 |
| 20260903185731 | 66 | 225 | 3.5 | 0.0 | 0.00 | 0.02 | 0.00 | 86 | 1058.6 |
| 20260903185618 | 66 | 270 | 7.0 | 0.0 | 0.00 | 0.02 | 0.00 | 86 | 1058.6 |
| 20260903185505 | 66 | 247 | 6.1 | 0.0 | 0.00 | 0.02 | 0.00 | 86 | 1058.6 |
| 20260903185352 | 66 | 247 | 7.0 | 0.0 | 0.00 | 0.02 | 0.00 | 86 | 1058.6 |
| 20260903185244 | 66 | 247 | 4.3 | 0.0 | 0.00 | 0.02 | 0.00 | 86 | 1058.7 |
| 20260903185132 | 66 | 247 | 5.2 | 0.0 | 0.00 | 0.02 | 0.00 | 86 | 1058.7 |
| 20260903185026 | 66 | 292 | 3.5 | 0.0 | 0.00 | 0.02 | 0.00 | 86 | 1058.8 |
| 20260903184921 | 66 | 247 | 0.0 | 0.0 | 0.00 | 0.02 | 0.00 | 86 | 1058.8 |
| 20260903184815 | 66 | 270 | 6.1 | 0.0 | 0.00 | 0.02 | 0.00 | 86 | 1058.8 |
| 20260903184709 | 66 | 270 | 8.7 | 0.0 | 0.00 | 0.02 | 0.00 | 86 | 1058.7 |
| 20260903184603 | 66 | 270 | 5.2 | 0.0 | 0.00 | 0.02 | 0.00 | 86 | 1058.8 |
| 20260903184456 | 66 | 247 | 5.2 | 0.0 | 0.00 | 0.02 | 0.00 | 86 | 1058.8 |
| 20260903184334 | 66 | 270 | 0.0 | 0.0 | 0.00 | 0.02 | 0.00 | 86 | 1058.8 |
| 20260903184220 | 66 | 270 | 7.8 | 0.0 | 0.00 | 0.02 | 0.00 | 86 | 1058.8 |
| 20260903184057 | 66 | 292 | 6.1 | 0.0 | 0.00 | 0.02 | 0.00 | 85 | 1058.8 |
| 20260903183943 | 66 | 270 | 5.2 | 0.0 | 0.00 | 0.02 | 0.00 | 85 | 1058.7 |
| 20260903183821 | 66 | 315 | 0.0 | 0.0 | 0.00 | 0.02 | 0.00 | 85 | 1058.7 |
| 20260903183702 | 66 | 270 | 0.0 | 0.0 | 0.00 | 0.02 | 0.00 | 86 | 1058.7 |
| 20260903183554 | 66 | 292 | 3.5 | 0.0 | 0.00 | 0.02 | 0.00 | 86 | 1058.7 |
| 20260903183433 | 66 | 270 | 3.5 | 0.0 | 0.00 | 0.02 | 0.00 | 85 | 1058.7 |
| 20260903183306 | 66 | 247 | 8.7 | 0.0 | 0.00 | 0.02 | 0.00 | 85 | 1058.6 |
| 20260903183158 | 66 | 270 | 3.5 | 0.0 | 0.00 | 0.02 | 0.00 | 85 | 1058.6 |
| 20260903183044 | 66 | 292 | 5.2 | 0.0 | 0.00 | 0.02 | 0.00 | 84 | 1058.6 |
| 20260903182923 | 66 | 292 | 5.2 | 0.0 | 0.00 | 0.02 | 0.00 | 84 | 1058.7 |
| 20260903182818 | 66 | 247 | 7.0 | 0.0 | 0.00 | 0.02 | 0.00 | 84 | 1058.7 |
| 20260903182705 | 66 | 292 | 4.3 | 0.0 | 0.00 | 0.02 | 0.00 | 84 | 1058.9 |
| 20260903182559 | 66 | 247 | 5.2 | 0.0 | 0.00 | 0.02 | 0.00 | 84 | 1058.8 |
| 20260903182446 | 66 | 292 | 6.1 | 0.0 | 0.00 | 0.02 | 0.00 | 84 | 1058.8 |
| 20260903182340 | 66 | 292 | 7.0 | 0.0 | 0.00 | 0.02 | 0.00 | 84 | 1058.7 |
| 20260903182235 | 66 | 270 | 10.4 | 0.0 | 0.00 | 0.02 | 0.00 | 84 | 1058.8 |
| 20260903182122 | 66 | 270 | 5.2 | 0.0 | 0.00 | 0.02 | 0.00 | 84 | 1058.7 |
| 20260903182001 | 66 | 292 | 5.2 | 0.0 | 0.00 | 0.02 | 0.00 | 84 | 1058.7 |
| 20260903181848 | 66 | 270 | 3.5 | 0.0 | 0.00 | 0.02 | 0.00 | 84 | 1058.7 |
| 20260903181734 | 66 | 315 | 6.1 | 0.0 | 0.00 | 0.02 | 0.00 | 84 | 1058.7 |
| 20260903181614 | 66 | 270 | 7.0 | 0.0 | 0.00 | 0.02 | 0.00 | 84 | 1058.7 |
| 20260903181500 | 66 | 292 | 5.2 | 0.0 | 0.00 | 0.02 | 0.00 | 84 | 1058.7 |
| 20260903181332 | 66 | 292 | 3.5 | 0.0 | 0.00 | 0.02 | 0.00 | 84 | 1058.7 |
| 20260903181217 | 66 | 270 | 7.0 | 0.0 | 0.00 | 0.02 | 0.00 | 83 | 1058.7 |
| 20260903181055 | 66 | 292 | 0.0 | 0.0 | 0.00 | 0.02 | 0.00 | 83 | 1058.7 |
| 20260903180934 | 66 | 270 | 5.2 | 0.0 | 0.00 | 0.02 | 0.00 | 83 | 1058.7 |
| 20260903180813 | 66 | 292 | 10.4 | 0.0 | 0.00 | 0.02 | 0.00 | 83 | 1058.7 |
| 20260903180700 | 66 | 270 | 2.6 | 0.0 | 0.00 | 0.02 | 0.00 | 82 | 1058.6 |
| 20260903180546 | 66 | 270 | 7.0 | 0.0 | 0.00 | 0.02 | 0.00 | 82 | 1058.6 |
| 20260903180433 | 67 | 270 | 6.1 | 0.0 | 0.00 | 0.02 | 0.00 | 82 | 1058.6 |
| 20260903180320 | 67 | 225 | 4.3 | 0.0 | 0.00 | 0.02 | 0.00 | 82 | 1058.6 |
| 20260903180207 | 67 | 270 | 6.1 | 0.0 | 0.00 | 0.02 | 0.00 | 82 | 1058.5 |